Location: Gerlach
(40.6516°N, 119.3568°W)
Time: 20:47:28
(UTC-08:00)

Vanguard 3 - All Passes

Search period start: 29 January 2023 00:00
Search period end: 08 February 2023 00:00
Orbit: 509 x 3252 km, 33.4° (Epoch: 29 January)

Date Brightness Start Highest point End Pass type
(mag) Time Alt. Az. Time Alt. Az. Time Alt. Az.
29 Jan - 00:53:46 10° W 01:11:29 53° SSW 01:29:06 10° SE visible
29 Jan - 03:11:06 10° W 03:25:41 27° SW 03:38:25 10° S visible
29 Jan - 17:07:20 10° SSE 17:12:24 15° SE 17:18:48 10° E daylight
29 Jan - 19:13:17 10° SW 19:23:23 46° SSE 19:39:24 10° E visible
29 Jan - 21:23:58 10° WSW 21:37:30 67° S 21:56:59 10° E visible
29 Jan - 23:36:52 10° W 23:53:30 62° SSW 00:12:40 10° ESE visible
30 Jan - 01:52:04 10° W 02:08:51 39° SW 02:24:38 10° SSE visible
30 Jan - 04:14:33 10° WSW 04:21:47 13° SW 04:28:29 10° SSW visible
30 Jan - 17:59:54 10° SSW 18:07:48 30° SE 18:19:54 10° E visible
30 Jan - 20:08:57 10° WSW 20:20:16 59° SSE 20:38:16 10° E visible
30 Jan - 22:20:43 10° W 22:35:28 67° S 22:55:11 10° ESE visible
31 Jan - 00:34:28 10° W 00:51:20 50° SSW 01:09:18 10° SE visible
31 Jan - 02:51:46 10° W 03:05:34 25° SW 03:18:19 10° S visible
31 Jan - 16:48:16 10° SSE 16:53:03 16° SE 16:59:14 10° E daylight
31 Jan - 18:54:39 10° SW 19:03:55 47° SSE 19:19:11 10° E visible
31 Jan - 21:05:13 10° WSW 21:17:46 66° S 21:36:51 10° E visible
31 Jan - 23:17:48 10° W 23:33:27 59° SSW 23:52:43 10° SE visible
01 Feb - 01:32:44 10° W 01:48:40 36° SW 02:04:39 10° SSE visible
01 Feb - 03:56:58 10° WSW 04:01:48 11° SW 04:06:27 10° SW visible
01 Feb - 17:41:12 10° SSW 17:48:29 31° SE 17:59:50 10° E visible
01 Feb - 19:50:20 10° WSW 20:00:45 60° SSE 20:18:00 10° E visible
01 Feb - 22:01:53 10° W 22:15:36 65° S 22:35:04 10° ESE visible
02 Feb - 00:15:18 10° W 00:31:12 47° SSW 00:49:16 10° SE visible
02 Feb - 02:32:42 10° W 02:45:27 22° SW 02:57:52 10° S visible
02 Feb - 16:29:21 10° SSE 16:33:49 16° SE 16:39:40 10° E daylight
02 Feb - 18:36:05 10° SW 18:44:34 47° SSE 18:58:56 10° E visible
02 Feb - 20:46:34 10° WSW 20:58:09 65° S 21:16:35 10° ESE visible
02 Feb - 22:58:51 10° W 23:13:27 56° SSW 23:32:33 10° SE visible
03 Feb - 01:13:35 10° W 01:28:30 33° SW 01:44:22 10° SSE visible
03 Feb - 17:22:37 10° SSW 17:29:15 31° SE 17:39:48 10° E daylight
03 Feb - 19:31:48 10° WSW 19:41:21 60° SSE 19:57:41 10° E visible
03 Feb - 21:43:08 10° W 21:55:49 62° S 22:14:46 10° ESE visible
03 Feb - 23:56:16 10° W 00:11:06 44° SSW 00:28:58 10° SE visible
04 Feb - 02:13:55 10° W 02:25:21 19° SW 02:36:57 10° S visible
04 Feb - 16:10:33 10° S 16:14:40 16° SE 16:20:05 10° E daylight
04 Feb - 18:17:36 10° SW 18:25:20 48° SSE 18:38:42 10° E visible
04 Feb - 20:27:59 10° WSW 20:38:37 64° S 20:56:14 10° ESE visible
04 Feb - 22:40:00 10° W 22:53:32 53° SSW 23:12:12 10° SE visible
05 Feb - 00:54:37 10° W 01:08:24 30° SW 01:23:46 10° SSE night (unlit)
05 Feb - 17:04:04 10° SSW 17:10:08 32° SE 17:19:50 10° E daylight
05 Feb - 19:13:20 10° WSW 19:22:03 60° S 19:37:21 10° E visible
05 Feb - 21:24:27 10° W 21:36:08 59° S 21:54:22 10° ESE visible
05 Feb - 23:37:22 10° W 23:51:04 40° SSW 00:08:26 10° SSE visible
06 Feb - 01:55:36 10° WSW 02:05:19 17° SW 02:15:30 10° SSW night (unlit)
06 Feb - 15:51:49 10° S 15:55:36 16° SE 16:00:35 10° ESE daylight
06 Feb - 17:59:09 10° SW 18:06:12 48° SSE 18:18:31 10° E visible
06 Feb - 20:09:27 10° W 20:19:12 62° S 20:35:49 10° ESE visible
06 Feb - 22:21:15 10° W 22:33:42 49° SSW 22:51:39 10° SE visible
07 Feb - 00:35:53 10° W 00:48:21 26° SW 01:02:51 10° S night (unlit)
07 Feb - 16:45:35 10° SSW 16:51:06 32° SSE 16:59:56 10° E daylight
07 Feb - 18:54:54 10° WSW 19:02:51 59° S 19:17:01 10° E visible
07 Feb - 21:05:52 10° W 21:16:33 56° SSW 21:33:49 10° ESE visible
07 Feb - 23:18:38 10° W 23:31:10 36° SSW 23:47:38 10° SSE visible
